Regional Weather Roundup
Issued by NWS

Home | Current Version | Previous Version | Graphics & Text | Print | Product List | Glossary On
Versions: 1 2 3 4 5 6 7 8 9 10 11 12 13 14 15 16 17 18 19 20 21 22 23 24 25 26 27 28 29 30 31 32 33 34 35 36 37 38 39 40 41 42 43 44 45 46 47 48 49 50
000
ASUS43 KLMK 270202
RWRKY
KENTUCKY REGIONAL WEATHER ROUNDUP
NATIONAL WEATHER SERVICE LOUISVILLE KY
1000 PM EDT SAT MAY 26 2018

NOTE "FAIR" INDICATES FEW OR NO CLOUDS BELOW 12,000 FEET
WITH NO SIGNIFICANT WEATHER AND/OR OBSTRUCTIONS TO VISIBILITY.

KYZ001>023-026-027-061>063-070>075-270300-
WESTERN AND SOUTH CENTRAL KENTUCKY

CITY           SKY/WX    TMP DP  RH WIND       PRES   REMARKS
PADUCAH        FAIR      76  72  87 CALM      29.83R
HENDERSON      FAIR      78  70  76 SW6       29.84R
OWENSBORO      FAIR      78  71  79 SW5       29.85R
HOPKINSVILLE   FAIR      76  69  79 S6        29.87R
BOWLING GREEN  FAIR      77  69  76 SW6       29.88R
GLASGOW        NOT AVBL
$$

KYZ024-025-028>034-038-045-046-053-270300-
NORTH CENTRAL KENTUCKY

CITY           SKY/WX    TMP DP  RH WIND       PRES   REMARKS
LOUISVILLE/SDF MOCLDY    82  68  62 SW9       29.84R
LOUISVILLE/LOU FAIR      80  70  71 S6        29.85R
FORT KNOX      FAIR      76  70  82 S6        29.88R
$$

KYZ035>037-039>044-047>052-055>060-089>105-270300-
NORTHEAST KENTUCKY

CITY           SKY/WX    TMP DP  RH WIND       PRES   REMARKS
LEXINGTON      FAIR      75  69  81 S5        29.88R
COVINGTON      MOCLDY    70  66  87 S7        29.84R
FRANKFORT      FAIR      75  67  76 SW6       29.86R
$$

KYZ054-064>069-076>088-106>120-270300-
SOUTHEAST KENTUCKY

CITY           SKY/WX    TMP DP  RH WIND       PRES   REMARKS
JACKSON        FAIR      72  69  90 CALM      29.92R
LONDON         LGT RAIN  71  69  93 CALM      29.92R
SOMERSET       NOT AVBL
MIDDLESBORO    FAIR      67  67 100 CALM      29.95R
MONTICELLO     FAIR      72  67  84 NE8       29.93R
$$




USA.gov is the U.S. government's official web portal to all federal, state and local government web resources and services.